Fort Nelson, British Columbia

3:08 AM PDT on March 25, 2017 (GMT -0700)
Fort Nelson

Weather History for CYYE - November, 2012

Change the Weather History Date:

Wednesday, November 28, 2012

  Actual Average Record
Temperature  
Mean Temperature -7 °F -  
Max Temperature 0 °F 4 °F 48 °F (2002)
Min Temperature -16 °F -11 °F -31 °F (2006)
Degree Days  
Heating Degree Days 72    
Moisture  
Dew Point -11 °F    
Average Humidity 75    
Maximum Humidity 78    
Minimum Humidity 61    
Precipitation  
Precipitation 0.00 in 0.02 in - ()
Sea Level Pressure  
Sea Level Pressure 30.47 in    
Wind  
Wind Speed 3 mph ()    
Max Wind Speed 7 mph    
Max Gust Speed -    
Visibility 13.7 miles    
Events Snow    
Averages and records for this station are not official NWS values.
T = Trace of Precipitation, MM = Missing Value Source: Averaged Metar Reports

Daily Weather History Graph

Daily Weather History Graph

Search for Another Location

Airport or City:

Trip Planner

Search our weather history database for the weather conditions in past years. The results will help you decide how hot, cold, wet, or windy it might be!

Date:

Astronomy

Nov. 28, 2012 Rise Set
Actual Time 8:31 AM PST 3:25 PM PST
Civil Twilight 7:40 AM PST 4:15 PM PST
Nautical Twilight 6:48 AM PST 5:07 PM PST
Astronomical Twilight 6:00 AM PST 5:56 PM PST
Moon 3:42 PM PST (11/28) 8:34 AM PST (11/28)
Length of Visible Light 8h 34m
Length of Day
6h 53m
Full, 100% of the Moon is Illuminated
Nov 28
Full
Dec 6
Last Quarter
Dec 13
New
Dec 19
First Quarter
Dec 28
Full

Hourly Weather History & Observations

Time (PST) Temp. Windchill Dew Point Humidity Pressure Visibility Wind Dir Wind Speed Gust Speed Precip Events Conditions
12:00 AM -0.4 °F -12.0 °F -7.6 °F 72% 30.51 in 15.0 mi North 5.8 mph - N/A   Mostly Cloudy
1:00 AM -0.4 °F -10.4 °F -7.6 °F 72% 30.53 in 15.0 mi North 4.6 mph - N/A   Mostly Cloudy
2:00 AM -0.4 °F - -7.6 °F 72% 30.53 in 15.0 mi North 2.3 mph - N/A   Mostly Cloudy
3:00 AM -2.2 °F - -7.6 °F 78% 30.52 in 15.0 mi North 2.3 mph - N/A   Mostly Cloudy
4:00 AM -4 °F - -9 °F 68% 30.51 in 15 mi NNW 3.5 mph - -   Partly Cloudy
4:00 AM -4.0 °F -12.4 °F -9.4 °F 78% 30.51 in 15.0 mi NNW 3.5 mph - N/A   Overcast
5:00 AM -4.0 °F -14.6 °F -9.4 °F 78% 30.51 in 15.0 mi North 4.6 mph - N/A   Mostly Cloudy
6:00 AM -4.0 °F -12.4 °F -9.4 °F 78% 30.51 in 15.0 mi North 3.5 mph - N/A   Overcast
7:00 AM -4.0 °F - -9.4 °F 78% 30.51 in 15.0 mi Calm Calm - N/A   Overcast
7:15 AM -4.0 °F -12.4 °F -9.4 °F 78% 30.51 in 10.0 mi North 3.5 mph - N/A Snow Light Snow
8:00 AM -4.0 °F -12.4 °F -9.4 °F 78% 30.51 in 5.0 mi North 3.5 mph - N/A Snow Light Snow
9:00 AM -4.0 °F -14.6 °F -9.4 °F 78% 30.51 in 5.0 mi North 4.6 mph - N/A Snow Light Snow
10:00 AM -5 °F - -11 °F 65% 30.51 in 5 mi North 4.6 mph - - Snow Light Snow
10:00 AM -5.8 °F -16.7 °F -11.2 °F 77% 30.51 in 5.0 mi North 4.6 mph - N/A Snow Light Snow
11:00 AM -4.0 °F -14.6 °F -9.4 °F 78% 30.51 in 20.0 mi North 4.6 mph - N/A   Mostly Cloudy
12:00 PM -4.0 °F -12.4 °F -9.4 °F 78% 30.50 in 20.0 mi North 3.5 mph - N/A   Overcast
12:27 PM -4.0 °F -12.4 °F -9.4 °F 78% 30.49 in 12.0 mi North 3.5 mph - N/A Snow Light Snow
1:00 PM -4.0 °F -14.6 °F -9.4 °F 78% 30.48 in 15.0 mi North 4.6 mph - N/A   Overcast
2:00 PM -4.0 °F -17.8 °F -9.4 °F 78% 30.46 in 15.0 mi North 6.9 mph - N/A Snow Light Snow
3:00 PM -4.0 °F -12.4 °F -9.4 °F 78% 30.45 in 15.0 mi North 3.5 mph - N/A Snow Light Snow
4:00 PM -5 °F - -11 °F 65% 30.45 in 15 mi NNW 3.5 mph - - Snow Light Snow
4:00 PM -5.8 °F -14.5 °F -11.2 °F 77% 30.45 in 15.0 mi NNW 3.5 mph - N/A Snow Light Snow
5:00 PM -5.8 °F -16.7 °F -11.2 °F 77% 30.44 in 15.0 mi North 4.6 mph - N/A Snow Light Snow
6:00 PM -9.4 °F - -14.8 °F 77% 30.43 in 15.0 mi West 2.3 mph - N/A Snow Light Snow
7:00 PM -9.4 °F - -14.8 °F 77% 30.42 in 15.0 mi Calm Calm - N/A Snow Light Snow
8:00 PM -9.4 °F - -16.6 °F 71% 30.41 in 15.0 mi Calm Calm - N/A Snow Light Snow
9:00 PM -11.2 °F - -16.6 °F 77% 30.40 in 15.0 mi Calm Calm - N/A Snow Light Snow
10:00 PM -14 °F - -20 °F 61% 30.38 in 15 mi East 2.3 mph - - Snow Light Snow
10:00 PM -13.0 °F - -20.2 °F 70% 30.38 in 15.0 mi Calm Calm - N/A Snow Light Snow
11:00 PM -16.6 °F - -22.0 °F 76% 30.37 in 15.0 mi Calm Calm - N/A Snow Light Snow